Date,TemperatureHighF,TemperatureAvgF,TemperatureLowF,DewpointHighF,DewpointAvgF,DewpointLowF,HumidityHigh,HumidityAvg,HumidityLow,PressureMaxIn,PressureMinIn,WindSpeedMaxMPH,WindSpeedAvgMPH,GustSpeedMaxMPH,PrecipitationSumIn
2014-1-1,3.1,-3.7,-18.9,-4.1,-8.6,-22.7,85,79,70,30.60,30.49,0,0,0,0.00
2014-1-2,6.7,-4.1,-15.5,-2.5,-8.8,-19.3,88,80,63,30.51,30.46,0,0,0,0.00
2014-1-3,16.4,0.6,-19.3,12.3,-4.4,-23.1,87,79,65,30.46,29.65,15,1,22,0.00
2014-1-4,22.2,12.9,-0.7,20.7,9.6,-4.1,94,86,75,30.15,29.56,14,1,22,0.00
2014-1-5,-0.7,-8.2,-16.9,-3.9,-12.9,-21.5,86,79,68,30.32,30.15,10,1,10,0.00
2014-1-6,-15.4,-21.4,-28.5,-21.5,-26.9,-34.0,80,75,65,30.19,30.13,15,3,15,0.00
2014-1-7,-2.8,-16.3,-25.0,-9.8,-21.0,-29.4,84,79,71,30.34,30.13,14,2,14,0.00
2014-1-8,4.1,-10.4,-22.1,-4.2,-15.0,-26.2,87,80,66,30.58,30.34,7,0,7,0.00
2014-1-9,14.7,-3.0,-26.6,12.2,-9.3,-31.2,93,75,52,30.59,30.15,16,2,20,0.00
2014-1-10,25.6,21.1,13.9,24.5,19.7,12.2,96,94,93,30.15,29.47,9,1,9,0.00
2014-1-11,27.8,25.9,24.4,26.6,24.5,23.2,96,95,91,29.64,29.41,0,0,0,0.00
2014-1-12,35.4,29.3,21.6,30.4,26.3,20.2,95,89,80,29.67,29.44,10,0,10,0.01
2014-1-13,31.8,27.9,22.8,29.2,23.8,16.5,95,85,73,29.65,29.46,15,1,15,0.00
2014-1-14,22.9,18.1,13.2,19.3,15.1,8.9,93,88,78,29.95,29.62,4,0,5,0.00
2014-1-15,13.3,9.9,4.6,9.3,5.8,0.1,89,83,77,30.02,29.53,0,0,1,0.00
2014-1-16,26.6,16.3,8.6,25.0,13.9,5.0,94,90,84,29.69,29.40,0,0,0,0.00
2014-1-17,19.7,14.1,9.1,14.9,10.7,6.3,93,86,78,29.96,29.69,0,0,0,0.00
2014-1-18,18.6,10.8,5.5,11.8,7.3,3.1,91,85,73,29.91,29.67,0,0,0,0.00
2014-1-19,26.5,20.4,6.9,24.0,18.1,4.0,93,91,84,29.70,29.46,15,1,15,0.00
2014-1-20,8.1,3.5,-4.1,5.5,-1.9,-8.4,90,78,64,30.34,29.70,8,1,10,0.00
2014-1-21,4.8,-3.5,-12.1,-7.0,-9.7,-15.7,85,74,55,30.40,30.13,7,1,8,0.00
2014-1-22,2.5,-0.6,-3.2,-3.6,-5.3,-8.1,85,80,67,30.27,29.94,14,2,14,0.00
2014-1-23,4.4,-2.7,-12.7,-5.1,-8.7,-17.4,85,75,62,30.61,30.27,11,2,14,0.00
2014-1-24,22.7,8.3,-12.5,20.7,4.9,-16.7,93,86,74,30.31,29.37,18,2,18,0.00
2014-1-25,19.9,1.8,-10.5,15.3,-4.8,-14.3,85,73,61,29.76,29.40,17,3,25,0.00
2014-1-26,5.5,-0.1,-7.3,1.6,-4.3,-12.1,86,82,76,29.84,29.36,12,1,13,0.00
2014-1-27,-3.7,-10.9,-16.5,-8.6,-17.5,-22.6,81,72,62,30.34,29.84,16,4,16,0.00
2014-1-28,-2.3,-11.3,-20.7,-12.3,-17.9,-25.0,81,72,59,30.34,30.06,16,4,16,0.00
2014-1-29,22.0,5.7,-9.4,11.7,-3.5,-13.6,82,67,46,30.07,29.70,18,3,18,0.00
2014-1-30,23.6,16.9,0.8,21.5,11.6,-4.0,92,80,63,29.91,29.51,15,1,16,0.00
2014-1-31,8.2,-3.1,-11.6,-0.8,-8.5,-15.5,84,77,65,30.16,29.91,0,0,0,0.00
2014-2-1,15.6,3.3,-13.1,7.6,-1.7,-17.1,86,79,67,30.16,30.02,0,0,0,0.00
2014-2-2,12.8,4.6,-7.1,4.6,-1.7,-10.8,88,75,57,30.31,30.16,0,0,0,0.00
2014-2-3,23.4,4.4,-15.4,13.4,-0.6,-19.3,90,80,63,30.38,30.26,13,1,13,0.00
2014-2-4,19.4,4.4,-12.6,8.0,-1.3,-16.6,89,78,57,30.49,30.38,4,0,4,0.00
2014-2-5,8.5,4.2,-0.8,2.9,-0.5,-5.6,90,81,68,30.45,30.39,8,1,9,0.00
2014-2-6,6.8,-2.8,-9.5,-3.8,-8.7,-13.0,85,76,58,30.42,30.23,13,2,13,0.00
2014-2-7,13.4,-0.0,-10.2,-1.0,-7.8,-13.7,85,71,47,30.25,30.13,14,2,14,0.00
2014-2-8,17.6,2.1,-15.8,6.1,-4.0,-19.7,88,76,56,30.26,30.16,9,1,9,0.00
2014-2-9,11.8,1.9,-7.3,2.8,-3.4,-12.8,89,78,65,30.20,30.04,10,1,10,0.00
2014-2-10,7.0,-4.9,-14.6,-5.3,-11.4,-18.6,85,74,55,30.39,30.20,10,1,11,0.00
2014-2-11,16.3,-2.2,-21.7,-0.9,-10.7,-25.9,86,68,45,30.41,30.11,10,1,11,0.00
2014-2-12,20.4,10.4,4.4,11.8,5.4,-2.7,91,80,61,30.11,29.84,14,1,14,0.00
2014-2-13,19.7,13.5,4.2,18.0,11.3,1.6,93,91,87,29.84,29.36,10,1,13,0.00
2014-2-14,17.9,7.8,-8.5,10.6,3.5,-11.9,89,82,70,29.91,29.47,10,2,10,0.00
2014-2-15,20.9,3.2,-14.5,12.9,-1.8,-18.4,91,80,52,29.95,29.85,7,0,7,0.00
2014-2-16,21.5,11.3,0.4,11.6,6.4,-2.5,91,81,63,30.16,29.90,7,1,7,0.00
2014-2-17,23.1,17.0,8.2,20.6,14.5,4.6,93,90,85,30.15,29.64,13,3,14,0.00
2014-2-18,38.7,26.3,15.3,28.0,22.0,13.4,94,84,62,29.68,29.45,11,1,16,0.01
2014-2-19,42.7,29.5,15.5,25.2,20.8,14.1,95,73,36,29.72,29.52,13,1,13,0.06
2014-2-20,37.2,30.9,24.2,31.6,26.7,19.9,97,85,60,29.72,28.78,13,2,13,0.04
2014-2-21,30.6,17.2,8.2,29.8,14.5,4.6,97,89,81,29.45,28.73,22,4,22,0.00
2014-2-22,17.0,9.1,4.5,8.7,4.2,0.5,85,80,68,29.86,29.45,19,5,19,0.00
2014-2-23,17.6,8.0,-0.7,6.7,1.6,-4.1,86,75,58,29.98,29.86,17,5,19,0.00
2014-2-24,15.5,7.5,2.4,3.2,0.1,-3.9,85,72,55,30.11,29.98,16,3,16,0.00
2014-2-25,7.8,0.7,-6.2,-0.6,-6.8,-11.1,82,71,53,30.09,29.99,14,4,15,0.00
2014-2-26,8.1,-1.6,-12.5,2.6,-8.7,-17.6,87,72,51,30.07,29.45,21,4,21,0.00
2014-2-27,1.9,-6.8,-20.7,-5.4,-16.1,-25.3,83,65,41,30.09,29.59,15,2,17,0.00
2014-2-28,7.5,-3.4,-23.4,2.5,-10.4,-28.4,85,73,37,30.10,29.91,10,2,10,0.00
2014-3-1,7.7,0.5,-8.1,0.2,-6.9,-18.0,85,71,55,30.34,30.01,11,2,12,0.00
2014-3-2,8.3,-3.9,-14.2,-11.5,-17.6,-23.7,72,52,33,30.40,30.29,12,2,13,0.00
2014-3-3,17.2,-1.0,-24.2,3.2,-9.7,-28.8,86,68,42,30.45,30.22,11,1,11,0.00
2014-3-4,22.1,9.7,0.3,8.4,3.5,-2.4,89,76,52,30.27,30.09,7,0,7,0.00
2014-3-5,23.2,6.3,-14.1,3.9,-4.6,-17.8,89,64,34,30.47,30.26,7,1,9,0.00
2014-3-6,30.6,14.7,-9.4,17.4,7.4,-13.1,91,73,56,30.39,29.83,9,2,12,0.00
2014-3-7,29.5,24.8,18.9,26.4,20.6,13.3,92,84,77,30.02,29.70,9,1,9,0.00
2014-3-8,28.6,16.8,2.3,14.5,9.0,-0.2,92,72,48,30.17,30.02,10,1,10,0.00
2014-3-9,41.2,25.9,11.4,30.0,18.5,6.7,86,74,60,30.06,29.54,12,2,13,0.02
2014-3-10,57.7,41.1,25.6,38.2,29.6,23.9,97,68,32,29.54,29.37,18,2,18,0.00
2014-3-11,43.5,37.3,29.2,30.1,27.2,20.6,83,67,55,29.76,29.47,8,1,8,0.00
2014-3-12,29.2,15.4,1.7,21.0,3.4,-3.9,83,61,32,30.00,29.74,10,2,11,0.00
2014-3-13,38.3,22.6,-2.1,31.1,15.1,-5.6,86,73,62,29.97,29.46,11,2,15,0.00
2014-3-14,39.9,34.7,25.3,34.5,30.7,20.8,91,85,79,29.67,29.30,14,3,16,0.00
2014-3-15,27.1,19.4,3.8,21.0,9.9,-1.9,87,68,43,30.36,29.67,10,1,10,0.00
2014-3-16,26.1,9.3,-9.5,0.6,-4.2,-13.1,88,59,25,30.42,30.06,7,1,7,0.00
2014-3-17,22.7,16.9,11.0,19.0,11.3,-2.4,90,79,52,30.06,29.66,9,2,10,0.00
2014-3-18,35.6,27.6,19.4,28.5,23.5,16.4,92,85,73,29.78,29.71,9,2,9,0.04
2014-3-19,34.3,29.6,26.9,30.6,27.0,23.8,95,90,85,29.76,29.58,11,2,12,0.01
2014-3-20,37.2,28.2,20.1,24.5,21.3,16.5,90,76,52,29.88,29.76,9,1,10,0.00
2014-3-21,40.9,27.7,12.3,30.2,22.0,9.9,95,81,53,29.88,29.63,11,1,12,0.00
2014-3-22,32.0,18.2,6.6,29.4,10.9,2.2,90,73,53,30.29,29.77,13,3,17,0.00
2014-3-23,21.5,8.8,-2.8,5.1,0.7,-5.5,89,71,46,30.36,30.26,11,1,14,0.00
2014-3-24,27.1,14.4,1.1,17.7,6.2,-3.6,87,71,43,30.26,29.90,12,2,18,0.00
2014-3-25,17.1,11.0,4.6,11.4,2.4,-1.3,84,68,47,30.07,29.89,15,3,15,0.00
2014-3-26,29.4,17.1,-1.0,20.4,7.4,-3.9,89,67,44,30.12,29.76,11,2,11,0.00
2014-3-27,35.2,31.3,27.3,33.5,29.2,20.4,97,92,74,29.76,29.41,9,1,9,0.02
2014-3-28,36.9,29.1,23.4,30.2,24.7,21.1,97,84,62,30.12,29.45,7,0,8,0.22
2014-3-29,42.7,31.0,21.8,25.3,22.5,20.0,94,73,47,30.20,30.07,8,1,8,0.11
2014-3-30,52.7,39.5,26.9,33.7,28.5,21.6,83,66,46,30.09,29.82,14,2,18,0.00
2014-3-31,52.4,44.0,36.3,38.2,34.8,32.6,88,71,53,29.86,29.38,12,3,13,0.00
2014-4-1,47.8,30.3,21.1,37.2,24.4,14.4,91,79,63,29.91,29.29,18,4,21,0.00
2014-4-2,44.1,30.3,14.4,21.4,16.7,11.4,90,60,33,30.12,29.91,11,1,11,0.00
2014-4-3,38.3,30.6,25.5,27.9,20.8,13.8,95,68,47,30.08,29.68,7,2,10,0.00
2014-4-4,31.2,27.5,22.8,29.6,26.3,21.2,96,95,92,29.84,29.42,7,1,7,0.00
2014-4-5,45.9,29.2,7.4,32.1,22.0,5.0,96,77,49,30.13,29.84,11,1,13,0.48
2014-4-6,56.7,46.2,32.2,40.5,33.6,26.9,81,62,46,30.05,29.81,13,2,13,0.00
2014-4-7,57.9,44.4,30.2,43.3,36.1,29.2,98,75,40,29.83,29.64,8,1,9,0.00
2014-4-8,50.1,38.4,26.7,37.8,31.3,23.9,97,77,50,29.93,29.67,11,1,11,0.00
2014-4-9,56.4,41.3,22.1,35.0,27.8,20.2,94,63,36,29.93,29.49,14,2,19,0.00
2014-4-10,55.4,48.0,29.5,40.4,28.2,17.0,84,49,25,29.85,29.45,22,4,26,0.00
2014-4-11,51.7,35.7,23.8,41.6,30.4,21.1,95,82,55,30.01,29.85,9,1,10,0.13
2014-4-12,44.6,37.5,30.6,41.3,35.5,29.2,98,93,80,30.04,29.77,11,2,12,0.28
2014-4-13,50.0,39.2,31.7,42.4,36.4,30.7,98,90,74,29.84,29.74,9,1,9,0.00
2014-4-14,31.7,24.1,10.0,30.7,20.2,7.0,97,85,68,30.05,29.66,8,1,9,0.00
2014-4-15,30.8,17.9,2.9,16.7,9.0,0.4,92,70,39,30.20,30.04,11,1,12,0.00
2014-4-16,31.0,23.2,10.1,28.8,20.4,7.3,96,89,80,30.28,30.14,11,2,12,0.00
2014-4-17,36.2,32.7,29.9,34.6,31.0,28.0,97,94,86,30.30,30.08,8,2,9,0.36
2014-4-18,44.9,32.5,22.2,28.4,24.1,18.4,96,74,37,30.41,30.30,5,0,9,0.03
2014-4-19,55.7,42.0,29.0,41.3,30.7,24.6,88,66,41,30.41,30.08,12,3,13,0.04
2014-4-20,65.8,53.3,42.2,54.0,46.3,38.9,96,77,64,30.08,29.96,7,1,8,0.03
2014-4-21,68.5,49.1,38.2,56.0,41.3,29.7,99,79,27,29.96,29.74,12,2,17,0.00
2014-4-22,44.7,37.4,27.0,29.8,27.6,23.6,89,68,53,30.12,29.90,12,2,14,0.00
2014-4-23,54.9,39.1,21.0,31.9,24.2,17.7,96,61,30,30.20,30.05,7,1,8,0.00
2014-4-24,41.2,34.9,32.6,35.5,31.5,18.0,97,89,41,30.10,29.71,13,3,13,0.44
2014-4-25,44.4,38.5,33.3,40.9,35.7,29.5,98,90,71,29.89,29.68,18,2,18,0.03
2014-4-26,47.0,38.0,30.6,31.7,29.3,20.5,92,72,52,30.16,29.89,11,1,11,0.00
2014-4-27,39.9,35.4,30.8,34.0,26.9,18.1,93,72,53,30.17,29.97,12,3,13,0.14
2014-4-28,51.2,42.8,37.4,34.3,28.9,22.9,83,58,42,29.97,29.81,19,5,19,0.10
2014-4-29,39.8,36.4,32.8,36.9,34.4,31.4,98,93,74,29.81,29.62,15,2,15,0.60
2014-4-30,49.3,43.0,36.9,47.3,42.2,36.4,99,97,90,29.68,29.63,8,0,8,0.25
2014-5-1,44.0,40.7,38.1,43.7,40.2,37.6,99,98,97,29.73,29.59,10,1,10,0.20
2014-5-2,53.2,42.4,37.6,42.3,38.7,36.2,98,88,56,29.72,29.61,9,1,10,0.02
2014-5-3,53.4,43.9,37.4,40.2,34.8,27.5,98,74,38,29.85,29.58,16,2,20,0.04
2014-5-4,54.6,41.9,32.0,35.6,31.2,26.6,96,69,36,30.07,29.85,10,1,11,0.01
2014-5-5,55.4,43.6,33.0,41.1,36.7,31.3,97,78,53,30.11,29.99,6,1,6,0.10
2014-5-6,59.9,46.9,31.1,38.7,33.8,27.7,95,63,41,30.08,29.95,12,2,12,0.00
2014-5-7,55.4,45.4,39.9,48.4,39.8,29.3,95,81,54,29.99,29.83,10,2,12,0.19
2014-5-8,71.6,54.2,44.4,59.7,51.5,43.8,98,91,65,29.89,29.60,10,2,11,0.28
2014-5-9,62.6,53.5,44.9,58.8,50.2,39.8,99,89,69,29.67,29.44,20,3,21,0.02
2014-5-10,70.8,54.7,39.3,39.9,33.6,25.8,94,52,20,29.89,29.67,16,2,16,0.00
2014-5-11,73.5,61.8,47.3,54.5,49.1,35.4,97,66,43,29.89,29.84,9,1,9,0.01
2014-5-12,69.8,56.9,49.4,62.0,54.0,46.4,99,91,63,29.86,29.70,9,2,9,1.02
2014-5-13,61.6,50.2,41.2,60.2,44.8,38.5,99,82,64,30.07,29.62,16,4,17,0.00
2014-5-14,56.7,45.8,33.4,39.4,32.8,28.2,95,64,36,30.17,30.07,11,1,11,0.00
2014-5-15,46.9,40.0,29.2,32.5,28.9,25.6,87,65,51,30.14,30.01,12,1,13,0.00
2014-5-16,48.2,38.2,26.9,30.5,26.9,24.6,95,67,40,30.05,30.00,9,1,9,0.00
2014-5-17,60.9,45.7,27.8,33.0,27.5,21.9,95,55,24,30.02,29.94,15,2,15,0.00
2014-5-18,71.5,57.4,44.3,39.6,35.0,28.9,64,45,23,30.05,29.99,17,2,17,0.00
2014-5-19,64.3,52.4,42.2,48.7,42.1,35.7,96,71,38,30.09,29.90,12,2,14,0.36
2014-5-20,72.3,57.3,47.0,59.7,51.9,46.2,98,84,52,29.91,29.77,9,1,9,0.43
2014-5-21,65.0,58.2,46.8,56.0,49.4,46.2,99,74,53,30.00,29.76,14,2,14,0.00
2014-5-22,62.9,54.8,47.3,47.3,45.0,41.3,89,71,49,30.14,29.98,11,1,11,0.00
2014-5-23,74.0,57.3,37.4,45.7,42.1,35.7,98,62,31,30.23,30.12,9,1,10,0.00
2014-5-24,80.5,65.5,47.3,50.8,47.8,44.2,92,57,30,30.17,30.03,10,1,11,0.00
2014-5-25,83.0,67.4,46.5,52.5,48.1,43.7,95,55,27,30.05,29.97,10,1,10,0.00
2014-5-26,83.8,69.7,56.6,66.8,61.0,51.6,98,75,52,29.98,29.85,10,1,11,0.06
2014-5-27,76.3,66.2,58.3,64.0,58.4,47.5,99,78,50,30.07,29.93,5,0,5,0.01
2014-5-28,80.8,65.5,51.9,51.6,45.1,35.3,82,52,21,30.18,30.07,7,1,7,0.00
2014-5-29,86.7,66.2,44.9,54.3,49.6,43.6,97,62,26,30.23,30.15,5,1,5,0.00
2014-5-30,88.3,68.8,47.8,59.1,52.5,46.4,97,63,26,30.26,30.17,6,1,6,0.00
2014-5-31,87.2,71.5,51.8,59.0,54.6,49.6,93,60,32,30.22,30.04,10,1,12,0.00
2014-6-1,77.5,68.3,62.9,71.9,64.5,55.8,99,88,63,30.04,29.83,15,1,15,0.92
2014-6-2,74.3,66.2,61.6,66.8,64.0,59.0,99,93,71,29.85,29.48,12,1,17,1.06
2014-6-3,72.4,60.3,50.6,58.9,52.6,48.6,96,78,50,29.80,29.50,14,4,20,0.05
2014-6-4,78.0,62.9,51.2,55.5,49.7,43.0,98,68,32,29.84,29.78,5,0,7,0.00
2014-6-5,78.9,62.9,46.1,60.4,52.8,41.4,92,71,46,29.88,29.77,15,0,16,0.00
2014-6-6,81.8,68.0,57.9,61.7,58.3,54.3,92,74,42,29.87,29.79,10,1,10,0.00
2014-6-7,72.2,59.8,52.4,63.4,55.5,49.3,97,86,66,29.93,29.81,12,0,13,0.01
2014-6-8,74.7,59.6,44.3,50.4,45.5,38.1,99,65,27,30.02,29.92,8,0,8,0.00
2014-6-9,69.3,58.7,46.7,53.6,46.2,36.7,93,66,41,30.05,29.92,8,0,8,0.00
2014-6-10,76.0,59.6,42.5,52.9,48.2,41.7,98,70,39,30.06,29.94,5,0,7,0.00
2014-6-11,82.7,64.6,45.0,58.5,51.8,43.7,97,67,38,29.94,29.75,5,0,5,0.00
2014-6-12,62.9,56.3,47.1,58.8,51.7,43.7,98,85,63,29.83,29.65,17,3,17,0.16
2014-6-13,69.7,55.6,44.7,44.2,39.6,29.6,93,61,24,30.06,29.83,14,2,14,0.00
2014-6-14,69.0,55.4,38.7,52.8,45.9,37.1,97,72,51,30.11,29.97,7,1,8,0.00
2014-6-15,73.7,60.6,48.8,67.6,55.2,43.0,98,83,62,30.05,29.66,12,2,14,0.81
2014-6-16,84.6,69.8,54.3,61.8,56.8,52.2,96,67,36,29.96,29.77,14,1,15,0.01
2014-6-17,87.3,73.4,63.1,66.2,61.2,56.0,89,68,40,29.92,29.66,10,1,13,0.00
2014-6-18,74.8,66.2,59.6,65.2,60.4,55.3,94,82,68,30.11,29.85,11,0,11,0.02
2014-6-19,74.7,65.5,56.3,62.4,58.6,53.5,95,79,62,30.18,30.06,8,1,10,0.00
2014-6-20,66.9,60.3,55.9,64.1,58.4,52.2,99,94,74,30.08,29.96,3,0,3,0.25
2014-6-21,73.8,62.9,55.5,67.3,60.7,55.1,99,93,78,30.00,29.89,4,0,4,0.06
2014-6-22,83.8,68.9,61.1,67.2,63.3,60.8,99,84,52,29.96,29.85,7,0,7,0.00
2014-6-23,73.6,66.4,60.3,72.7,65.8,60.0,100,98,96,29.86,29.80,6,0,6,1.31
2014-6-24,79.5,68.5,61.8,68.5,63.9,58.8,100,87,60,29.99,29.84,8,0,8,0.03
2014-6-25,63.7,59.5,55.4,61.7,58.2,55.0,99,96,91,30.11,29.98,5,0,5,0.77
2014-6-26,76.5,63.5,50.9,62.9,58.3,50.6,100,85,60,30.14,30.03,3,0,5,0.01
2014-6-27,77.9,65.5,55.9,71.6,63.3,55.1,99,93,78,30.05,29.91,6,1,6,0.70
2014-6-28,86.3,75.1,66.5,73.5,69.8,66.2,99,85,60,29.95,29.77,10,1,11,0.01
2014-6-29,81.7,71.6,64.1,70.7,65.1,62.1,99,82,54,29.82,29.73,18,2,18,0.09
2014-6-30,84.0,71.4,63.7,68.5,64.9,60.5,95,81,49,29.78,29.52,17,2,19,0.00
2014-7-1,71.4,64.5,60.2,66.1,60.6,56.4,95,87,77,29.75,29.50,10,1,10,0.06
2014-7-2,71.0,58.4,46.7,56.5,49.2,38.1,94,74,36,30.13,29.75,8,1,9,0.01
2014-7-3,73.3,57.6,43.2,56.4,47.3,42.2,98,73,37,30.30,30.13,13,1,13,0.00
2014-7-4,78.7,61.2,41.7,54.2,47.7,40.9,98,67,33,30.39,30.26,12,1,12,0.00
2014-7-5,78.7,68.6,57.0,63.8,58.3,51.2,86,71,54,30.26,29.97,11,1,22,0.00
2014-7-6,75.3,68.0,64.3,72.1,65.4,61.6,97,91,82,29.97,29.64,8,0,8,0.05
2014-7-7,77.2,67.4,59.5,66.2,63.2,57.8,98,87,61,29.74,29.60,4,0,11,0.00
2014-7-8,65.0,59.5,51.3,62.6,56.9,49.9,99,91,79,29.91,29.61,8,0,12,0.09
2014-7-9,72.3,58.4,48.2,54.2,50.8,46.9,99,78,51,30.14,29.89,12,1,12,0.00
2014-7-10,78.5,62.1,42.0,60.8,53.5,41.4,99,76,47,30.22,30.00,8,0,8,0.00
2014-7-11,76.2,68.2,60.4,62.8,61.1,59.3,97,79,62,30.06,29.93,17,1,17,0.00
2014-7-12,78.1,67.9,61.5,70.3,64.6,61.2,99,90,68,30.05,29.87,9,0,9,0.51
2014-7-13,71.4,63.9,58.7,61.8,54.5,46.6,99,74,44,29.91,29.81,13,2,15,0.00
2014-7-14,63.4,55.7,50.4,56.7,52.1,48.7,97,88,63,29.95,29.84,11,0,12,0.30
2014-7-15,63.9,55.2,46.9,53.2,50.4,45.8,98,85,59,30.05,29.93,10,1,11,0.06
2014-7-16,70.1,56.3,42.0,53.5,48.4,41.5,99,78,46,30.10,30.03,7,0,10,0.00
2014-7-17,75.7,60.7,44.0,57.4,51.8,43.2,99,76,45,30.12,30.06,8,1,8,0.00
2014-7-18,78.8,64.7,49.4,61.8,56.7,48.3,98,78,46,30.16,30.06,9,1,11,0.00
2014-7-19,77.0,67.4,59.1,64.6,60.8,57.2,94,80,62,30.07,29.97,15,1,15,0.00
2014-7-20,80.4,70.9,60.9,68.4,64.1,59.0,94,80,65,30.00,29.91,10,1,13,0.00
2014-7-21,85.5,75.0,67.7,74.4,69.0,64.1,91,82,67,29.99,29.93,9,1,10,0.00
2014-7-22,79.8,71.2,56.8,73.1,66.5,55.9,97,86,67,30.12,29.80,17,2,21,0.02
2014-7-23,75.0,62.2,51.1,58.7,55.0,50.8,99,80,51,30.26,30.12,9,0,9,0.00
2014-7-24,78.3,61.9,45.8,58.9,53.2,44.9,98,76,44,30.25,30.01,7,0,7,0.00
2014-7-25,69.8,63.4,56.1,64.0,60.6,54.7,97,91,80,30.02,29.85,8,0,8,0.01
2014-7-26,83.2,70.8,63.5,69.9,63.0,55.5,100,80,40,29.86,29.74,13,1,16,0.06
2014-7-27,68.4,61.9,52.7,65.6,59.2,51.2,98,91,75,30.07,29.69,10,1,13,0.22
2014-7-28,70.9,60.1,49.3,58.3,53.5,48.4,98,81,54,30.16,30.07,8,1,10,0.01
2014-7-29,72.8,61.3,51.0,62.8,56.4,50.4,99,85,62,30.08,30.01,9,1,12,0.01
2014-7-30,73.3,59.8,48.0,58.7,53.0,47.5,99,81,49,30.10,29.99,9,1,9,0.01
2014-7-31,78.0,63.7,49.5,59.9,54.0,48.4,99,75,42,30.02,29.99,12,1,12,0.00
2014-8-1,80.3,64.5,49.9,61.4,55.4,48.8,98,76,43,30.15,30.02,7,0,7,0.00
2014-8-2,83.8,65.7,48.1,63.8,56.9,47.0,98,77,44,30.20,30.11,7,0,7,0.00
2014-8-3,81.5,67.0,56.2,70.5,62.4,55.0,99,87,51,30.12,30.07,10,0,10,0.18
2014-8-4,75.5,65.1,58.0,66.2,62.3,57.4,100,91,69,30.14,30.07,4,0,4,0.30
2014-8-5,80.5,65.7,53.3,63.8,58.9,52.7,99,81,49,30.16,30.09,5,0,5,0.00
2014-8-6,80.5,65.2,50.5,61.1,56.4,49.7,99,77,45,30.15,30.08,6,0,7,0.00
2014-8-7,82.5,66.1,51.7,62.3,57.1,50.8,99,77,41,30.18,30.10,5,0,5,0.00
2014-8-8,83.8,66.5,51.5,61.0,56.1,50.7,99,74,37,30.19,30.12,5,0,5,0.00
2014-8-9,80.5,66.2,52.5,62.7,57.4,51.7,99,76,47,30.21,30.13,4,0,5,0.00
2014-8-10,83.8,67.4,51.8,63.8,58.9,51.0,99,77,46,30.16,30.02,6,0,6,0.00
2014-8-11,66.9,59.9,54.7,63.5,58.7,53.5,98,96,86,30.03,29.95,10,0,11,0.59
2014-8-12,71.5,60.5,53.2,55.5,52.1,47.3,96,76,46,29.99,29.95,14,1,14,0.00
2014-8-13,73.8,61.2,46.6,58.7,53.3,44.6,99,78,47,30.16,29.97,7,0,9,0.00
2014-8-14,71.1,54.8,38.6,53.5,45.7,37.8,99,75,41,30.21,30.09,7,0,7,0.00
2014-8-15,78.9,61.0,40.4,64.7,54.6,39.5,99,81,56,30.10,29.88,7,1,8,0.00
2014-8-16,75.9,65.4,56.8,70.5,63.3,55.9,100,93,77,30.02,29.84,7,0,7,0.90
2014-8-17,75.3,62.0,52.7,60.5,55.9,50.6,98,82,55,30.10,29.98,5,0,6,0.00
2014-8-18,67.4,61.5,56.1,65.8,60.5,55.4,99,96,90,29.99,29.69,3,0,3,1.19
2014-8-19,72.5,64.8,61.0,66.3,62.5,59.4,100,93,75,29.80,29.65,10,0,10,0.04
2014-8-20,69.7,63.7,58.9,63.8,60.7,57.8,97,90,78,29.99,29.79,6,0,6,0.00
2014-8-21,70.4,64.4,59.6,67.0,63.1,59.1,100,96,88,29.99,29.93,4,0,4,0.01
2014-8-22,73.9,67.8,63.1,72.0,67.2,62.7,100,98,93,30.04,29.93,2,0,2,0.01
2014-8-23,75.6,69.9,65.8,71.8,69.1,65.2,100,98,88,30.06,30.01,3,0,3,0.02
2014-8-24,78.2,69.6,64.4,71.4,67.6,64.1,99,94,79,30.07,29.94,7,1,7,0.00
2014-8-25,84.5,72.7,64.7,73.2,67.9,60.8,100,86,65,30.02,29.90,11,1,12,1.87
2014-8-26,69.7,61.1,54.3,61.1,54.4,50.6,95,80,57,30.19,29.98,11,1,11,0.00
2014-8-27,71.3,59.9,49.6,56.3,53.6,47.9,99,82,54,30.24,30.17,8,0,8,0.03
2014-8-28,72.5,58.4,42.7,61.3,53.5,42.2,100,85,56,30.22,30.07,5,0,5,0.00
2014-8-29,71.5,62.7,56.9,68.4,61.7,56.4,100,97,89,30.07,29.82,6,0,6,0.58
2014-8-30,67.3,62.4,56.5,67.2,61.9,55.9,100,98,95,29.94,29.77,4,0,5,0.21
2014-8-31,74.7,62.2,51.8,67.5,60.2,51.5,100,94,75,29.98,29.77,6,0,6,0.01
2014-9-1,72.0,64.6,55.6,67.3,61.8,54.7,100,91,65,29.80,29.62,14,1,15,0.71
2014-9-2,74.3,61.9,50.2,59.8,54.7,49.9,100,80,50,29.93,29.80,7,1,10,0.00
2014-9-3,70.2,61.1,50.4,64.3,58.4,49.8,100,91,74,29.99,29.85,8,0,11,1.30
2014-9-4,69.9,63.8,61.5,67.9,63.6,61.2,100,99,92,29.92,29.73,12,0,24,1.97
2014-9-5,67.8,60.5,51.9,67.8,57.8,50.8,100,91,78,30.14,29.78,11,1,12,0.03
2014-9-6,69.5,56.5,45.9,54.4,49.5,45.0,99,80,45,30.19,30.14,11,1,12,0.00
2014-9-7,74.5,59.9,46.9,56.7,51.5,46.4,99,78,43,30.19,30.12,15,1,15,0.00
2014-9-8,71.8,59.2,49.7,59.3,54.4,49.2,99,86,56,30.13,29.97,10,1,13,0.02
2014-9-9,79.4,64.3,52.5,66.9,60.3,52.0,100,88,61,29.99,29.84,5,0,6,0.00
2014-9-10,65.4,51.1,39.7,64.0,50.2,37.2,100,97,90,30.02,29.62,11,1,15,2.26
2014-9-11,50.9,42.6,33.9,41.9,38.3,33.1,97,85,67,30.42,30.02,9,0,10,0.00
2014-9-12,48.5,39.3,31.0,42.8,37.5,30.5,99,94,72,30.50,30.39,4,0,5,0.30
2014-9-13,56.7,43.9,31.8,42.8,38.1,31.3,99,82,48,30.42,30.32,6,0,7,0.01
2014-9-14,61.4,50.5,39.9,50.3,43.6,38.1,95,78,56,30.32,30.10,12,1,12,0.00
2014-9-15,58.7,46.3,36.2,47.8,41.1,35.6,99,84,52,30.23,30.16,8,1,11,0.00
2014-9-16,65.2,48.2,33.2,47.3,40.8,32.7,99,79,48,30.23,30.09,11,1,14,0.00
2014-9-17,70.4,53.3,41.3,54.2,46.5,40.5,98,80,49,30.14,29.98,8,1,9,0.00
2014-9-18,56.1,47.0,39.0,50.0,43.7,36.8,98,89,73,30.25,30.14,4,0,5,0.00
2014-9-19,69.0,57.6,43.7,58.3,52.1,43.2,99,83,62,30.18,29.75,16,1,16,0.00
2014-9-20,71.5,64.9,52.7,64.5,59.5,51.8,97,83,65,29.75,29.67,15,2,20,0.21
2014-9-21,54.7,48.5,37.1,51.8,45.0,36.3,99,88,67,30.24,29.68,8,1,10,0.30
2014-9-22,66.1,50.1,35.7,52.8,45.3,35.2,99,86,58,30.30,30.21,10,1,12,0.00
2014-9-23,74.8,56.6,41.7,56.3,50.3,41.2,100,82,47,30.33,30.25,6,0,7,0.00
2014-9-24,71.1,56.2,45.1,56.0,51.0,44.6,99,85,50,30.35,30.29,7,0,11,0.11
2014-9-25,73.5,60.3,51.9,61.2,56.1,51.0,99,87,62,30.32,30.26,5,0,6,0.01
2014-9-26,79.0,59.3,44.7,58.7,51.6,44.2,100,80,38,30.32,30.25,5,0,7,0.00
2014-9-27,79.9,62.3,49.2,63.3,56.0,48.7,99,82,54,30.29,30.18,7,0,8,0.00
2014-9-28,81.0,63.9,49.3,63.6,57.0,48.8,100,81,51,30.22,30.05,6,0,7,0.00
2014-9-29,57.6,47.3,37.6,56.4,45.0,36.2,98,92,78,30.20,30.02,9,0,10,0.15
2014-9-30,58.7,44.6,37.6,47.8,41.0,36.3,96,88,64,30.21,30.08,5,0,6,0.00
2014-10-1,58.2,50.2,43.4,53.4,48.0,42.3,98,92,75,30.10,29.91,5,1,6,0.02
2014-10-2,64.1,56.5,47.9,59.6,54.8,47.4,99,94,83,29.94,29.59,4,0,11,0.87
2014-10-3,55.0,45.3,34.8,53.8,44.0,33.8,99,95,84,29.66,29.51,14,3,19,0.44
2014-10-4,40.1,36.9,32.9,39.2,35.6,31.8,99,95,81,29.69,29.56,16,2,18,0.23
2014-10-5,45.0,38.1,34.5,33.9,31.6,27.7,92,78,61,29.67,29.56,12,2,14,0.00
2014-10-6,52.4,41.7,32.3,40.0,32.9,27.9,98,74,43,29.57,29.43,15,1,16,0.01
2014-10-7,56.9,46.6,41.4,41.3,35.8,29.7,94,68,45,29.75,29.43,19,3,19,0.00
2014-10-8,49.2,41.3,37.0,33.1,30.4,27.1,78,66,44,30.00,29.74,18,2,22,0.00
2014-10-9,52.4,39.0,29.7,38.3,32.8,28.2,95,79,57,30.20,30.00,9,1,9,0.00
2014-10-10,51.9,38.7,25.8,39.1,32.1,24.8,98,79,52,30.26,30.19,8,0,8,0.00
2014-10-11,54.1,38.5,26.6,34.2,30.4,25.7,98,76,44,30.28,30.11,7,0,7,0.00
2014-10-12,60.2,45.0,30.9,43.9,35.5,28.4,95,72,43,30.11,29.90,9,1,12,0.00
2014-10-13,51.6,48.4,46.0,50.3,47.7,43.9,99,97,84,29.90,29.69,6,0,7,0.70
2014-10-14,51.0,47.7,45.7,48.6,46.1,42.7,99,94,85,29.89,29.65,16,2,18,0.58
2014-10-15,57.9,47.5,41.1,47.7,43.3,39.7,97,86,67,29.93,29.84,11,1,11,0.00
2014-10-16,58.2,46.0,36.9,50.1,43.9,36.4,99,93,74,29.89,29.52,4,0,4,0.01
2014-10-17,47.3,44.8,40.8,46.2,43.5,39.0,99,95,88,29.95,29.46,13,1,14,0.09
2014-10-18,46.3,37.1,27.4,39.2,33.1,26.6,97,86,59,30.20,29.95,8,1,10,0.08
2014-10-19,52.2,39.4,26.4,45.9,36.6,25.7,98,90,75,30.17,29.78,12,0,12,0.02
2014-10-20,49.4,44.5,38.8,45.6,42.6,37.5,98,93,81,30.10,29.78,10,1,10,0.03
2014-10-21,50.3,39.8,29.4,39.5,35.3,28.4,97,85,63,30.32,30.09,5,0,5,0.00
2014-10-22,56.1,39.5,26.3,38.6,31.4,25.2,98,77,36,30.39,30.20,8,1,8,0.00
2014-10-23,44.9,43.7,39.9,44.6,41.7,36.9,99,93,79,30.20,30.02,5,0,6,0.18
2014-10-24,62.6,50.4,42.8,53.1,47.1,42.5,99,89,60,30.02,29.80,9,1,10,0.00
2014-10-25,58.9,52.3,44.8,52.2,36.7,25.1,97,59,29,29.93,29.79,21,4,23,0.00
2014-10-26,58.8,43.6,30.4,34.0,30.7,26.7,87,63,34,29.99,29.80,7,0,8,0.00
2014-10-27,56.1,49.5,43.0,49.0,43.7,32.3,96,81,50,29.80,29.54,6,1,7,0.20
2014-10-28,50.0,43.2,34.8,47.8,40.5,33.0,98,90,80,29.80,29.54,16,3,18,0.16
2014-10-29,42.2,38.2,34.5,36.5,34.4,32.6,94,86,75,30.12,29.79,16,2,16,0.00
2014-10-30,40.6,37.4,32.2,34.6,33.4,31.0,97,85,77,30.11,30.05,12,1,13,0.02
2014-10-31,33.2,28.5,22.2,31.4,24.3,19.4,97,84,68,30.53,30.11,17,1,17,0.01
2014-11-1,39.6,26.8,14.3,26.7,20.4,12.6,96,79,48,30.55,30.36,6,0,6,0.11
2014-11-2,48.9,37.0,26.3,27.4,25.0,22.7,88,64,39,30.36,30.03,11,1,11,0.04
2014-11-3,49.7,41.5,31.8,44.1,34.2,24.5,96,76,60,30.03,29.75,9,0,9,0.13
2014-11-4,46.7,40.5,35.9,46.2,36.7,29.5,98,87,74,29.90,29.68,19,3,20,0.10
2014-11-5,39.6,35.4,32.4,33.1,30.2,27.0,98,82,69,30.05,29.90,13,1,15,0.02
2014-11-6,33.0,32.2,31.2,32.0,30.7,29.4,98,94,88,30.24,29.94,6,0,6,0.02
2014-11-7,34.6,32.0,27.9,32.3,30.8,27.1,98,95,89,30.20,29.67,5,1,7,0.04
2014-11-8,34.1,31.9,28.6,33.2,26.7,19.6,98,82,60,29.88,29.65,19,3,20,0.16
2014-11-9,33.6,28.3,17.5,30.8,23.7,14.3,96,84,55,29.90,29.69,11,1,12,0.03
2014-11-10,29.7,25.4,19.9,28.6,23.4,18.3,96,92,83,29.92,29.70,11,1,13,0.00
2014-11-11,29.5,25.5,22.2,28.5,24.1,20.2,97,94,91,30.10,29.78,9,0,9,0.00
2014-11-12,24.4,20.9,18.0,21.1,18.4,16.1,93,90,82,30.27,30.10,0,0,0,0.00
2014-11-13,24.9,19.7,12.3,20.2,16.8,10.4,93,88,81,30.30,30.25,0,0,0,0.00
2014-11-14,24.4,17.5,9.3,16.7,13.7,6.8,91,85,68,30.37,30.30,0,0,0,0.00
2014-11-15,20.6,11.6,-0.3,12.8,7.7,-3.0,92,85,66,30.36,30.19,0,0,0,0.00
2014-11-16,21.5,16.2,8.3,17.4,12.9,4.4,93,87,78,30.19,29.81,0,0,0,0.00
2014-11-17,12.5,8.1,5.1,6.4,4.1,2.3,90,84,74,29.83,29.75,0,0,0,0.00
2014-11-18,11.8,9.0,6.1,5.5,3.8,2.4,87,79,68,29.99,29.81,0,0,0,0.00
2014-11-19,17.6,13.4,8.7,13.7,9.7,4.6,90,85,78,29.93,29.73,9,0,9,0.00
2014-11-20,12.2,8.3,3.1,8.4,2.7,-1.1,87,78,64,30.15,29.85,15,2,16,0.00
2014-11-21,25.9,13.5,-2.1,19.8,5.0,-5.0,88,70,49,30.15,29.80,14,2,15,0.00
2014-11-22,34.7,31.5,25.8,34.2,29.8,19.9,98,93,78,29.80,29.59,12,2,13,0.00
2014-11-23,45.2,41.9,34.8,44.9,41.6,34.3,99,99,98,29.59,29.13,9,1,9,0.30
2014-11-24,39.4,30.1,20.2,39.1,29.4,18.8,99,97,94,29.60,29.02,12,1,14,0.14
2014-11-25,21.1,15.1,0.7,19.0,12.4,-1.8,95,89,77,30.02,29.60,9,1,10,0.00
2014-11-26,24.4,16.9,2.9,20.1,14.7,0.8,94,91,82,30.11,30.00,5,0,5,0.00
2014-11-27,16.0,5.6,-7.5,13.8,2.0,-10.8,92,85,72,30.24,30.11,7,0,10,0.00
2014-11-28,15.7,9.4,-5.7,12.8,6.7,-8.6,93,89,86,30.16,29.71,3,0,5,0.00
2014-11-29,33.1,27.3,13.4,31.9,26.4,11.8,99,96,93,29.70,29.36,11,1,11,0.00
2014-11-30,32.0,16.9,2.5,31.5,13.5,-2.0,98,86,75,30.16,29.42,13,2,13,0.00
2014-12-1,5.9,-1.6,-12.3,-1.9,-7.2,-15.8,87,77,60,30.50,30.16,11,2,12,0.00
2014-12-2,20.4,13.0,-9.0,16.8,10.5,-12.3,93,89,79,30.35,29.79,11,2,12,0.00
2014-12-3,17.9,14.1,8.1,15.5,10.0,4.5,91,83,73,30.18,29.78,17,1,17,0.00
2014-12-4,22.7,11.7,-5.0,12.0,4.9,-8.0,90,75,49,30.25,30.08,9,1,9,0.00
2014-12-5,29.2,24.5,12.2,27.4,22.7,9.5,96,93,89,30.22,30.03,8,1,8,0.00
2014-12-6,30.1,16.5,6.3,21.3,12.4,4.2,96,85,59,30.54,30.22,9,0,9,0.00
2014-12-7,31.2,23.0,10.7,25.5,19.0,8.4,93,85,75,30.50,30.01,11,2,11,0.00
2014-12-8,32.0,29.1,26.6,31.5,28.3,24.7,98,97,92,30.07,29.82,12,1,12,0.00
2014-12-9,28.0,23.5,17.8,26.9,21.6,16.3,96,92,87,30.33,30.07,10,1,10,0.00
2014-12-10,26.7,17.7,10.8,21.3,15.6,8.9,95,91,79,30.31,30.19,4,0,5,0.00
2014-12-11,22.1,15.8,5.8,20.3,14.1,3.8,96,93,90,30.19,30.10,8,1,8,0.00
2014-12-12,30.6,26.8,20.9,30.1,26.1,19.9,98,97,96,30.14,30.02,6,2,7,0.00
2014-12-13,39.5,35.4,28.8,39.5,35.1,28.3,100,99,98,30.02,29.86,8,2,10,0.28
2014-12-14,44.3,41.3,39.2,44.3,41.3,38.9,100,100,99,29.86,29.75,4,0,4,0.01
2014-12-15,43.7,40.6,37.5,43.7,40.6,37.4,100,100,100,29.75,29.58,3,0,3,0.25
2014-12-16,37.6,26.9,20.4,37.6,26.2,18.6,100,97,93,29.98,29.57,10,1,10,0.08
2014-12-17,21.3,18.9,14.9,20.1,17.2,13.0,95,93,89,30.19,29.98,12,2,12,0.00
2014-12-18,27.5,20.0,6.6,24.7,18.2,4.5,95,93,88,30.23,30.15,7,0,7,0.00
2014-12-19,26.4,14.5,3.0,24.1,12.6,0.7,95,92,90,30.26,30.17,3,0,5,0.00
2014-12-20,27.7,24.5,19.7,26.7,23.6,18.5,97,96,95,30.17,30.06,3,0,3,0.00
2014-12-21,32.2,29.3,26.3,32.0,28.8,25.3,99,98,96,30.06,29.76,8,2,8,0.00
2014-12-22,32.5,31.6,30.4,32.2,31.3,29.9,99,99,98,29.76,29.61,8,2,8,0.00
2014-12-23,32.6,31.6,30.4,32.3,31.3,29.9,99,99,98,29.65,29.51,8,0,8,0.00
2014-12-24,32.5,30.7,29.3,31.8,30.2,28.6,99,98,96,29.65,29.38,0,0,0,0.00
2014-12-25,31.8,29.9,28.8,30.5,29.1,28.1,98,97,94,29.82,29.41,0,0,0,0.00
2014-12-26,31.6,29.9,28.7,31.0,29.3,28.2,98,98,97,30.09,29.79,0,0,0,0.00
2014-12-27,31.1,26.0,13.1,29.8,25.0,11.4,98,96,92,30.07,29.88,0,0,0,0.00
2014-12-28,18.5,9.8,-5.3,15.7,7.7,-8.0,94,91,88,30.40,30.06,0,0,0,0.00
2014-12-29,9.1,-0.5,-6.7,5.5,-3.4,-9.6,90,87,84,30.67,30.40,0,0,0,0.00
2014-12-30,2.9,-5.8,-12.5,-0.9,-9.2,-15.7,86,85,82,30.76,30.60,0,0,0,0.00
2014-12-31,5.9,-2.7,-12.8,2.1,-5.9,-16.0,89,86,83,30.60,29.97,0,0,0,0.00
2015-1-1,22.2,12.7,4.0,18.9,9.9,1.5,92,88,80,30.16,29.84,0,0,0,0.00
2015-1-2,16.4,8.4,-4.0,12.9,4.3,-7.0,89,83,73,30.34,30.16,0,0,0,0.00